Regional Weather Roundup
Issued by NWS

Home | Current Version | Previous Version | Graphics & Text | Print | Product List | Glossary On
Versions: 1 2 3 4 5 6 7 8 9 10 11 12 13 14 15 16 17 18 19 20 21 22 23 24 25 26 27 28 29 30 31 32 33 34 35 36 37 38 39 40 41 42 43 44 45 46 47 48 49 50
000
ASUS44 KMEG 290710
RWRTN
TENNESSEE HOURLY STATE WEATHER ROUNDUP
NATIONAL WEATHER SERVICE MEMPHIS TN
200 AM CDT FRI MAY 29 2015

TNZ002-004-019-021-049-052-054-088>092-290800-
WEST TENNESSEE

CITY           SKY/WX    TMP DP  RH WIND       PRES   REMARKS
MEMPHIS INTL   PTCLDY    72  66  81 S5        30.05F
NWS MEMPHIS      N/A     69 N/A N/A MISG        N/A
JACKSON        CLEAR     68  65  90 S5        30.06F
DYERSBURG      CLEAR     70  54  56 CALM      30.06F
PARIS          CLEAR     66  64  94 CALM      30.08F
LEXINGTON      PTCLDY    66  64  94 CALM      30.07F
$$

TNZ008-025-027-028-033-062-065-066-290800-
NORTH MIDDLE TENNESSEE

CITY           SKY/WX    TMP DP  RH WIND       PRES   REMARKS
NASHVILLE      CLEAR     67  65  93 S5        30.11F
CLARKSVILLE    MOCLDY    71  66  84 S6        30.09F
SMYRNA         CLEAR     66  66 100 CALM      30.11F
COOKEVILLE     CLEAR     64  64 100 CALM      30.13S
CROSSVILLE     PTCLDY    66  62  87 S3        30.17F
$$

TNZ061-075-076-078-094-096-097-290800-
SOUTH MIDDLE TENNESSEE

CITY           SKY/WX    TMP DP  RH WIND       PRES   REMARKS
FAYETTEVILLE   CLEAR    N/A N/A N/A MISG      30.10S
TULLAHOMA      CLEAR     66  64  94 CALM      30.12F
WINCHESTER     CLEAR     68  64  88 E5        30.11F
MCMINNVILLE    MOCLDY    64  64 100 CALM      30.12F VSB 1
COLUMBIA       MOCLDY    66  66 100 CALM      30.08F
SHELBYVILLE    PTCLDY    66  66 100 CALM      30.11F
$$

TNZ017-018-042-046-047-290800-
NORTHEAST TENNESSEE

CITY           SKY/WX    TMP DP  RH WIND       PRES   REMARKS
TRI CITIES     FOG       64  63  96 CALM      30.19F VSB 1
ELIZABETHTON   SUNNY     61  59  94 NE6       30.20F
$$

TNZ012-013-036-069-073-074-290800-
CENTRAL EAST TENNESSEE

CITY           SKY/WX    TMP DP  RH WIND       PRES   REMARKS
KNOXVILLE      MOCLDY    69  65  86 CALM      30.15F
OAK RIDGE      PTCLDY    68  64  87 CALM      30.17F
GATLINBURG       N/A     64  64 100 CALM      30.15F
MORRISTOWN     SUNNY     64  64 100 CALM      30.17F
$$

TNZ083-085-099-290800-
SOUTHEAST TENNESSEE

CITY           SKY/WX    TMP DP  RH WIND       PRES   REMARKS
CHATTANOOGA    PTCLDY    68  66  93 CALM      30.13F
$$

SKY/WX REPORTED AS FAIR MEANS FEW OR NO CLOUDS BELOW
12 THOUSAND FEET.




USA.gov is the U.S. government's official web portal to all federal, state and local government web resources and services.